Patuxent River, MD

8:46 AM EDT on September 28, 2016 (GMT -0400)
Patuxent River Naval Air Station

Weather History for KNHK - November, 2013

Change the Weather History Date:

Saturday, November 2, 2013

  Actual Average Record
Temperature  
Mean Temperature 62 °F -  
Max Temperature 71 °F 64 °F 79 °F (1982)
Min Temperature 53 °F 47 °F 27 °F (1976)
Degree Days  
Heating Degree Days 2    
Growing Degree Days 12 (Base 50)    
Moisture  
Dew Point 52 °F    
Average Humidity 70    
Maximum Humidity 94    
Minimum Humidity 34    
Precipitation  
Precipitation 0.00 in - - ()
Sea Level Pressure  
Sea Level Pressure 29.70 in    
Wind  
Wind Speed 5 mph (WNW)    
Max Wind Speed 15 mph    
Max Gust Speed 24 mph    
Visibility 10 miles    
Events Rain    
Averages and records for this station are not official NWS values.
T = Trace of Precipitation, MM = Missing Value Source: NWS Daily Summary

Daily Weather History Graph

Daily Weather History Graph

Search for Another Location

Airport or City:

Trip Planner

Search our weather history database for the weather conditions in past years. The results will help you decide how hot, cold, wet, or windy it might be!

Date:

Astronomy

Nov. 02, 2013 Rise Set
Actual Time 7:33 AM EDT 6:04 PM EDT
Civil Twilight 7:05 AM EDT 6:32 PM EDT
Nautical Twilight 6:34 AM EDT 7:03 PM EDT
Astronomical Twilight 6:03 AM EDT 7:34 PM EDT
Moon 6:28 AM EDT (11/2) 5:34 PM EDT (11/2)
Length of Visible Light 11h 26m
Length of Day
10h 31m
Waning Crescent, 1% of the Moon is Illuminated
Nov 2
Waning Crescent
Nov 3
New
Nov 10
First Quarter
Nov 17
Full
Nov 25
Last Quarter

Hourly Weather History & Observations

Time (EDT) Temp. Dew Point Humidity Pressure Visibility Wind Dir Wind Speed Gust Speed Precip Events Conditions
12:21 AM 66.2 °F 64.4 °F 94% 29.65 in 10.0 mi SSW 3.5 mph - N/A   Mostly Cloudy
12:41 AM 66.2 °F 64.4 °F 94% 29.65 in 10.0 mi SW 4.6 mph - N/A   Mostly Cloudy
12:52 AM 66.0 °F 64.0 °F 93% 29.65 in 10.0 mi SW 3.5 mph - N/A   Mostly Cloudy
1:10 AM 66.2 °F 64.4 °F 94% 29.64 in 10.0 mi SW 4.6 mph - N/A   Mostly Cloudy
1:20 AM 66.2 °F 64.4 °F 94% 29.64 in 10.0 mi WSW 4.6 mph - N/A   Mostly Cloudy
1:52 AM 64.9 °F 63.0 °F 93% 29.64 in 10.0 mi West 3.5 mph - N/A   Mostly Cloudy
2:20 AM 64.4 °F 62.6 °F 94% 29.64 in 10.0 mi West 4.6 mph - N/A   Mostly Cloudy
2:49 AM 64.9 °F 63.0 °F 93% 29.65 in 10.0 mi West 6.9 mph - N/A   Mostly Cloudy
3:00 AM 64.4 °F 62.6 °F 94% 29.65 in 10.0 mi WNW 5.8 mph - N/A   Mostly Cloudy
3:11 AM 64.4 °F 62.6 °F 94% 29.64 in 10.0 mi WNW 6.9 mph - N/A   Scattered Clouds
3:52 AM 63.0 °F 60.1 °F 90% 29.64 in 10.0 mi WNW 6.9 mph - N/A   Clear
4:52 AM 62.1 °F 55.9 °F 80% 29.65 in 10.0 mi NW 11.5 mph - N/A   Clear
5:52 AM 60.1 °F 50.0 °F 69% 29.67 in 10.0 mi NNW 9.2 mph - N/A   Clear
6:05 AM 60.8 °F 48.2 °F 63% 29.66 in 10.0 mi North 8.1 mph - N/A   Partly Cloudy
6:52 AM 57.9 °F 48.9 °F 72% 29.68 in 10.0 mi NNW 6.9 mph - N/A   Scattered Clouds
7:52 AM 57.0 °F 50.0 °F 77% 29.69 in 10.0 mi NW 5.8 mph - N/A   Mostly Cloudy
8:52 AM 60.1 °F 52.0 °F 75% 29.70 in 10.0 mi NNW 4.6 mph - N/A   Mostly Cloudy
9:52 AM 62.1 °F 52.0 °F 70% 29.71 in 10.0 mi Calm Calm - N/A   Mostly Cloudy
10:52 AM 66.9 °F 46.0 °F 47% 29.71 in 10.0 mi Calm Calm - N/A   Mostly Cloudy
11:52 AM 69.1 °F 43.0 °F 39% 29.70 in 10.0 mi Calm Calm - 0.00 in   Scattered Clouds
12:52 PM 71.1 °F 41.0 °F 34% 29.69 in 10.0 mi NW 6.9 mph - N/A   Scattered Clouds
1:52 PM 66.9 °F 48.0 °F 51% 29.68 in 10.0 mi ESE 6.9 mph - N/A   Scattered Clouds
2:52 PM 69.1 °F 41.0 °F 36% 29.67 in 10.0 mi SSE 5.8 mph - N/A   Scattered Clouds
3:52 PM 66.0 °F 42.1 °F 42% 29.67 in 10.0 mi SSW 4.6 mph - N/A   Mostly Cloudy
4:52 PM 64.9 °F 44.1 °F 47% 29.68 in 10.0 mi SSE 3.5 mph - N/A   Mostly Cloudy
5:52 PM 62.1 °F 48.0 °F 60% 29.70 in 10.0 mi NE 4.6 mph - N/A   Mostly Cloudy
6:52 PM 60.1 °F 43.0 °F 53% 29.77 in 10.0 mi NNW 15.0 mph 24.2 mph 0.00 in   Clear
7:52 PM 57.9 °F 41.0 °F 53% 29.82 in 10.0 mi NNW 11.5 mph - N/A   Scattered Clouds
8:52 PM 57.0 °F 41.0 °F 55% 29.83 in 10.0 mi NW 10.4 mph - N/A   Overcast
9:52 PM 54.0 °F 45.0 °F 72% 29.85 in 10.0 mi NNW 5.8 mph - 0.00 in Rain Light Rain
10:52 PM 54.0 °F 44.1 °F 69% 29.87 in 10.0 mi NW 8.1 mph - 0.00 in Rain Light Rain
11:52 PM 53.1 °F 39.9 °F 61% 29.88 in 10.0 mi WNW 6.9 mph - 0.00 in   Clear